Theta_e
335 336 335 336 334 334 331 331 331 331 332 333 333 332 329 326 324 323 322 321 324 331 334 334 334 331 327 325 325 326 326 323 314 325 331 330 330 330 333 333 332 332 330
334 335 335 336 331 333 331 331 331 330 328 326 327 328 328 327 325 322 320 319 321 323 323 323 327 330 328 324 325 326 326 318 316 326 329 330 332 333 332 332 331 328 325
334 336 336 334 333 327 331 324 321 324 328 328 328 327 326 325 323 320 318 316 318 320 318 316 327 328 326 327 329 329 328 320 322 326 329 335 332 332 331 331 328 325 321
336 335 335 333 334 331 330 333 329 325 320 320 320 319 317 317 318 319 319 318 315 313 324 328 329 330 328 326 327 326 326 322 323 326 330 331 334 332 330 330 326 320 318
336 337 337 334 332 331 328 330 335 334 330 323 318 315 314 314 316 316 320 319 323 324 326 327 328 329 328 327 325 325 324 322 325 329 329 332 331 331 330 328 325 319 317
337 337 338 336 335 333 332 328 330 335 333 327 320 316 318 314 321 321 325 327 331 329 328 327 325 327 326 327 326 324 323 318 328 331 330 330 330 330 329 326 321 317 317
336 338 338 337 335 334 335 335 332 332 332 328 321 317 322 317 320 325 330 330 331 329 330 329 326 327 326 324 326 322 323 318 328 329 329 329 329 329 327 322 317 317 318
334 337 338 338 336 336 334 334 336 335 332 330 326 321 330 324 317 327 330 331 330 330 329 327 326 325 323 324 324 323 322 323 330 329 330 329 328 329 323 317 318 318 317
326 330 333 334 335 336 335 334 334 334 335 331 329 321 329 331 320 325 328 331 330 330 329 328 326 326 322 317 319 319 322 326 331 327 328 328 328 328 322 318 318 317 316
318 328 332 333 333 334 336 335 334 333 334 334 332 326 325 330 330 324 325 330 330 330 329 328 325 324 322 318 322 322 321 323 326 328 326 327 328 326 319 318 317 316 315
307 309 311 316 319 323 328 333 334 334 333 333 333 330 326 325 329 329 325 324 326 327 328 323 322 323 322 321 325 325 325 325 324 326 324 326 327 325 321 318 316 316 315
305 305 305 305 306 307 310 316 323 328 332 334 333 332 329 325 324 326 328 327 326 323 322 321 322 323 323 320 324 325 325 323 325 324 325 327 327 325 322 321 318 315 314
305 305 305 305 305 304 304 305 306 309 314 324 330 328 332 328 325 324 324 328 327 325 323 323 323 324 322 318 323 324 326 326 325 325 324 327 327 325 324 319 318 315 314
305 306 305 305 305 306 306 305 305 304 305 308 316 325 328 330 328 326 326 325 327 326 324 323 323 324 320 318 319 323 325 326 325 326 327 327 325 325 324 321 317 317 314
305 306 305 306 306 305 305 305 305 305 305 305 305 305 307 317 327 329 326 325 326 327 326 324 323 324 320 318 318 321 323 324 324 326 327 327 325 324 324 323 320 319 315
306 307 307 307 307 307 307 307 306 306 306 306 306 306 305 306 312 326 327 327 325 325 325 323 322 323 322 323 322 318 321 325 323 327 327 326 325 324 324 322 321 320 317
307 307 308 308 308 308 307 307 307 306 305 305 305 305 305 305 305 311 313 322 325 324 323 324 323 322 323 322 325 320 319 321 324 324 326 325 324 323 324 323 321 319 317
307 307 307 307 307 307 306 306 306 306 305 305 305 304 304 304 305 305 307 311 318 324 321 323 324 323 323 322 324 325 322 319 319 323 324 324 325 324 323 323 322 320 318
306 306 306 306 306 306 305 305 305 305 305 305 305 305 305 304 304 305 306 306 310 313 323 321 325 323 322 322 323 324 324 322 321 320 323 324 324 324 322 322 321 320 319
305 305 305 305 304 304 304 304 304 304 304 303 303 303 304 304 304 304 306 305 305 311 313 323 324 324 323 323 322 323 324 322 321 321 321 323 323 324 322 322 321 320 319
305 304 303 303 303 303 303 302 302 302 302 302 301 301 301 301 302 302 303 304 305 306 308 313 324 325 322 322 323 323 324 323 322 322 321 323 322 323 323 321 321 320 319
302 302 303 303 303 301 300 298 297 297 297 297 298 298 298 297 299 300 301 302 301 303 305 307 316 323 323 322 321 322 319 321 321 321 320 321 323 323 323 322 321 320 319
302 303 303 301 299 298 297 297 297 296 296 296 296 296 295 295 295 296 298 299 300 300 302 305 313 314 323 322 321 320 317 318 318 320 320 318 322 322 323 322 321 321 319
302 301 299 298 296 295 295 295 295 294 294 295 294 295 295 294 294 294 295 295 297 298 299 302 304 311 318 321 320 321 320 320 318 316 319 319 319 321 320 321 320 320 319
300 297 296 296 296 295 294 294 292 293 293 294 294 294 294 294 293 292 293 296 298 300 301 303 302 308 314 315 320 320 321 320 320 319 317 318 319 317 320 319 320 320 317
299 296 295 294 294 294 293 293 292 291 292 292 294 293 294 294 293 293 292 293 294 296 301 304 303 302 305 312 315 319 319 318 320 319 317 316 318 318 318 317 318 319 319
Wind_Speed
8 5 8 14 17 15 18 19 19 20 20 19 18 17 16 14 14 14 15 16 18 21 21 20 16 15 15 14 13 12 12 12 15 16 18 21 20 21 22 21 19 19 17
6 5 4 12 17 18 16 19 19 20 20 20 20 19 18 17 16 16 16 17 18 20 21 20 19 19 16 13 14 14 13 13 13 16 18 19 20 23 22 19 17 16 13
1 1 4 11 13 16 16 15 18 20 21 21 21 20 20 19 18 18 17 17 18 19 19 18 19 17 19 20 18 17 14 15 15 19 19 21 21 22 20 17 16 13 10
2 2 1 10 13 15 16 16 15 16 18 20 20 20 19 19 19 18 17 17 17 16 17 20 21 20 20 24 22 20 17 16 20 21 21 21 22 21 19 16 13 10 7
1 1 0 5 12 15 16 17 18 17 16 17 18 18 19 19 19 19 17 16 14 14 15 20 23 21 21 23 23 22 21 20 24 23 23 23 23 21 18 16 13 8 5
1 0 1 4 6 14 15 18 19 19 17 17 16 16 17 17 19 18 18 18 19 16 15 16 16 20 19 22 23 24 23 24 27 24 26 25 22 19 19 16 12 9 6
2 1 3 3 3 8 14 17 19 20 20 18 17 16 16 16 22 22 20 22 21 19 18 14 15 17 15 20 23 24 25 26 28 27 28 26 22 20 18 13 10 8 7
2 4 8 12 6 10 14 17 19 20 22 21 19 18 19 18 22 25 24 24 23 21 19 17 16 16 17 18 22 25 26 29 29 31 29 28 24 21 18 14 11 10 11
4 6 9 13 18 18 17 18 20 22 24 24 23 22 23 22 23 24 25 27 26 24 21 18 17 18 17 22 22 25 27 30 31 30 30 26 23 20 18 14 13 11 10
8 8 9 10 15 19 20 19 21 24 26 26 25 25 25 25 24 24 25 27 27 27 25 24 22 21 19 26 26 27 28 29 28 28 28 25 23 20 18 17 15 14 12
10 11 12 13 14 15 14 19 23 24 26 28 29 29 28 28 28 27 27 28 29 29 27 25 25 22 22 29 28 27 29 28 27 29 27 26 23 21 19 16 15 15 12
9 11 14 17 18 19 19 19 20 19 15 23 31 32 33 32 31 30 30 30 30 29 28 27 25 25 25 33 30 29 30 31 32 32 31 28 26 23 20 14 14 15 14
8 12 15 14 15 16 18 21 23 22 20 23 15 27 32 34 34 33 33 33 31 29 27 27 26 28 30 38 35 34 32 34 34 35 32 31 27 25 22 21 19 16 15
9 14 12 10 10 12 13 14 17 20 23 24 23 23 16 24 35 34 36 36 36 33 30 30 28 33 33 37 40 38 33 41 38 41 38 34 29 28 23 20 21 18 16
8 10 9 11 12 13 14 17 18 19 20 19 21 23 27 24 13 32 38 38 38 36 33 33 33 34 35 37 40 41 37 36 38 47 40 34 30 28 25 24 21 21 17
8 8 9 12 16 17 18 18 20 22 24 24 25 26 26 26 28 16 21 41 41 41 39 37 39 38 39 39 39 40 41 39 37 40 35 31 31 30 28 24 23 21 21
8 10 12 15 18 21 24 25 26 26 27 29 29 28 28 32 29 35 33 18 46 44 43 44 43 43 39 43 41 42 40 41 41 41 35 34 35 35 32 30 26 23 21
11 14 16 18 21 24 28 31 34 35 35 36 36 36 35 34 37 32 39 39 21 48 47 48 50 47 44 46 44 45 43 40 44 44 43 41 44 42 40 31 29 27 27
9 13 18 23 28 33 37 39 42 44 45 46 45 45 44 43 42 42 37 40 35 30 48 54 54 50 49 47 48 46 44 43 43 44 46 46 49 45 40 37 35 30 29
13 19 26 32 37 41 45 48 50 51 52 51 51 51 51 49 46 43 44 41 36 41 36 47 56 50 50 50 52 50 47 45 44 46 46 48 51 49 43 41 40 38 33
22 28 36 42 44 45 47 49 50 52 53 54 53 53 51 49 47 44 46 48 42 39 47 37 45 56 53 51 54 51 51 47 48 48 45 55 53 58 50 44 42 44 39
33 38 41 44 47 48 47 47 45 45 47 47 47 46 45 44 45 49 49 49 47 43 45 51 33 40 53 56 49 43 36 45 52 51 50 49 56 52 52 54 49 48 45
38 40 43 46 45 41 39 39 40 40 41 43 43 42 40 39 38 40 43 46 48 46 46 49 58 36 47 58 55 37 22 21 44 53 53 52 51 51 54 56 47 51 51
38 39 42 42 39 36 34 35 37 41 44 41 41 42 42 40 38 36 37 39 41 44 44 47 53 59 28 59 61 65 45 36 22 24 53 56 53 51 52 53 60 54 54
39 41 43 39 36 35 34 34 36 38 41 42 42 42 41 42 40 38 36 35 36 36 38 39 46 57 63 28 67 59 65 51 38 35 31 54 60 57 49 57 60 57 45
40 41 40 37 36 35 34 33 34 35 37 40 41 42 42 41 41 39 38 39 44 45 46 43 43 46 60 60 38 60 64 63 57 46 38 49 62 62 60 52 47 51 51
Wind_Direction
355 331 189 194 187 195 195 194 195 200 200 199 197 204 212 213 209 206 202 199 200 199 200 202 201 194 190 193 194 186 178 171 164 150 145 149 148 149 146 143 144 135 134
308 314 222 201 195 199 204 205 206 208 209 209 210 213 216 220 221 218 214 209 208 206 209 209 203 205 200 194 187 180 175 170 166 154 147 152 152 151 151 145 146 137 134
296 91 240 205 210 203 208 211 213 215 217 219 220 221 224 223 224 222 219 216 214 215 210 201 187 194 182 179 180 176 178 171 162 155 159 154 155 157 152 153 141 137 132
164 81 199 209 210 212 210 216 217 218 219 221 224 227 228 227 219 221 218 216 210 207 192 181 186 191 186 180 186 189 180 172 168 170 164 163 154 160 157 151 146 142 141
121 95 123 219 220 218 221 221 225 225 228 225 227 228 230 226 218 214 213 207 204 201 200 193 190 197 194 186 191 191 190 183 175 174 170 166 165 166 160 153 150 164 147
18 253 340 359 269 233 233 230 232 233 235 237 235 232 231 221 206 210 206 203 196 198 205 196 193 199 196 193 191 193 192 184 180 175 174 175 170 172 170 163 173 161 155
52 218 239 288 338 277 253 249 244 239 239 243 244 235 227 222 206 206 206 201 203 204 198 207 211 206 202 198 195 191 192 184 182 177 179 182 180 178 172 178 179 166 155
300 245 245 241 234 247 258 267 258 250 248 245 244 235 231 216 211 212 212 207 206 201 200 212 232 226 217 207 192 191 190 185 180 177 185 180 184 184 176 183 174 165 152
314 277 262 261 250 251 250 251 254 264 260 248 242 234 231 226 213 216 218 209 207 214 219 229 237 233 230 200 190 195 192 187 180 186 192 189 189 181 190 184 178 170 170
309 297 288 284 273 258 262 257 250 251 259 259 244 235 232 229 227 221 221 222 219 222 231 234 237 244 229 187 194 196 191 193 193 191 198 198 195 182 187 184 181 175 175
287 291 288 288 290 288 287 268 259 254 255 259 250 238 235 233 226 225 223 225 229 233 234 238 238 238 223 198 203 200 196 195 199 199 202 204 202 187 190 190 182 179 180
297 296 291 290 288 287 286 284 285 286 274 268 245 245 233 234 232 230 228 230 233 234 237 238 236 228 219 205 204 203 204 199 200 203 206 208 207 198 191 202 208 191 192
320 325 323 312 304 300 294 291 288 291 294 300 297 268 244 234 234 231 232 233 231 229 231 233 232 227 221 207 209 209 204 203 201 208 213 212 200 198 193 199 206 201 199
315 325 329 333 332 328 327 322 316 307 299 292 292 278 294 243 241 235 234 234 232 227 225 225 232 228 222 211 213 215 212 205 204 210 208 209 204 202 215 212 209 203 203
309 328 342 338 332 330 329 330 329 325 325 320 314 311 293 290 267 245 239 240 236 231 230 226 231 233 224 216 215 215 216 218 226 213 206 206 203 214 214 217 210 211 205
304 323 322 314 313 313 311 306 305 306 307 309 312 316 316 302 285 262 263 245 242 237 236 234 230 231 229 224 221 219 217 218 224 205 207 212 210 217 211 206 216 216 216
274 283 291 296 298 295 294 295 293 292 293 295 295 296 301 305 308 280 274 279 245 241 244 237 232 229 231 228 226 220 220 221 223 224 222 227 224 218 218 213 214 214 219
262 270 279 285 287 289 289 290 291 290 289 288 288 289 288 289 291 287 282 273 273 242 237 244 231 227 228 229 226 221 219 221 225 225 227 223 219 213 211 220 222 206 203
282 292 292 291 293 292 290 288 287 286 284 284 282 282 283 283 283 277 278 276 268 273 234 232 233 226 225 227 227 224 220 222 227 225 227 229 220 217 218 221 213 213 212
293 296 296 295 294 294 294 292 290 289 286 283 280 278 277 277 275 266 269 270 273 260 264 228 231 224 229 227 227 228 224 226 228 228 231 230 226 220 224 214 211 217 213
303 303 302 301 300 300 299 298 295 292 289 287 285 284 280 274 269 264 260 263 262 259 258 259 229 226 219 229 227 226 225 222 228 228 228 231 230 219 218 224 216 215 214
315 315 314 311 309 306 302 300 299 296 293 290 288 287 285 281 273 266 261 260 263 255 254 249 249 222 213 217 215 221 215 215 222 223 225 229 220 216 223 216 217 219 216
323 316 314 313 311 308 307 304 300 295 291 292 292 291 289 284 279 272 265 259 260 261 252 252 246 251 205 214 222 210 209 215 209 214 220 224 217 230 224 221 217 224 216
324 321 318 314 311 310 310 306 303 301 299 298 295 292 290 287 281 272 265 261 256 256 254 246 247 241 245 217 214 221 218 222 197 211 215 219 225 218 225 216 223 223 214
328 326 322 319 314 314 312 308 303 299 298 298 296 293 289 286 281 273 262 253 249 250 249 244 244 240 242 239 214 212 218 220 218 207 205 216 222 225 228 229 221 224 234
328 325 323 321 318 317 314 308 303 299 299 297 297 296 293 289 284 278 269 256 249 245 237 240 240 245 242 242 239 211 211 213 216 214 207 213 218 221 226 226 223 229 222